Tracking 29892 objects as of 21-Nov-2024
HD Live streaming from Space Station
objects crossing your sky now

OPS 4682 DEB

Track OPS 4682 DEB now!
10-day predictions


NORAD ID: 38434
Int'l Code: 1965-027EP
Perigee: 1,258.6 km
Apogee: 1,305.0 km
Inclination: 90.2 °
Period: 111.0 minutes
Semi major axis: 7652 km
RCS: 0.0142 m2 (small)
Launch date: April 3, 1965
Source: United States (US)
Launch site: AIR FORCE WESTERN TEST RANGE (AFWTR)

Note: This is SATELLITE DEBRIS
Your satellite tracking list
Your tracking list is empty




NASA's NSSDC Master Catalog

Two Line Element Set (TLE):
1 38434U 65027EP  24324.05282762  .00000276  00000-0  93368-3 0  9996
2 38434  90.2416 353.2052 0030303 275.3769  84.3894 12.96798409587959
Source of the keplerian elements: AFSPC